Satellite: HAWKSAT1
Catalog number: 35003
Epoch time:      09197.76466102
Element set:      51
Inclination:      040.4708 deg
RA of node:       063.2934 deg
Eccentricity:    0.0028878
Arg of perigee:   025.1429 deg
Mean anomaly:     335.0823 deg
Mean motion:   15.39934908 rev/day
Decay rate:      1.042e-05 rev/day^2
Epoch rev:             891
Checksum:              290

Satellite: CP6
Catalog number: 35004
Epoch time:      09197.82263601
Element set:      45
Inclination:      040.4627 deg
RA of node:       062.8086 deg
Eccentricity:    0.0027570
Arg of perigee:   026.0091 deg
Mean anomaly:     334.2133 deg
Mean motion:   15.40216516 rev/day
Decay rate:      2.865e-05 rev/day^2
Epoch rev:             891
Checksum:              270

Satellite: AEROCUB3
Catalog number: 35005
Epoch time:      09196.92170798
Element set:    0052
Inclination:      040.4738 deg
RA of node:       068.3624 deg
Eccentricity:    0.0028221
Arg of perigee:   017.0895 deg
Mean anomaly:     343.0877 deg
Mean motion:   15.40040089 rev/day
Decay rate:      3.117e-05 rev/day^2
Epoch rev:           00877
Checksum:              296

/EX





More information about the Keps mailing list